USA 148

Last updated on Jan. 26, 2020, 4:40 a.m. UTC

1 26052U 00001A   20025.30496378  .00000031  00000-0  00000-0 0  9999
2 26052   8.1929  47.4624 0001966 314.0338  52.4616  1.00273909  9551
UTC
Height (km)
Latitude
Longitude
Inclination
Orbital Period
UTC large
Height (km)
Speed (km/s)
/
Latitude / Longitude
Inclination (degrees)
Orbital Period (minutes)
Azimuth
Elevation
Range (km)
Doppler Factor
iOS Compass Heading
iOS Angle

Next 30 passes for location: Hong Kong

Rise time Rise Azimuth (degrees) Set time Set Azimuth (degrees) Duration Max altitude (degrees)

No matching passes for this satellites